This is the latest recevied weather packets stored in our database for station/object N0EDB-13. If no packets are shown the sender has not sent any weather packets the latest 10 day(s).
| Time | Temp. | Humidity | Pressure | Rain* | Wind** | Luminosity | Snow |
|---|---|---|---|---|---|---|---|
| 1777520406 | 9.44° C | 57% | 1510.9 hPa | 0 mm | - | 0 W/m² | - |
| 1777520105 | 9.44° C | 56% | 1511 hPa | 0 mm | - | 0 W/m² | - |
| 1777519804 | 9.44° C | 56% | 1511.2 hPa | 0 mm | - | 0 W/m² | - |
| 1777519504 | 9.44° C | 55% | 1510.8 hPa | 0 mm | - | 0 W/m² | - |
| 1777519203 | 9.44° C | 53% | 1510.9 hPa | 0 mm | - | 0 W/m² | - |
| 1777518902 | 8.89° C | 54% | 1511.1 hPa | 0 mm | - | 0 W/m² | - |
| 1777518602 | 9.44° C | 55% | 1510.8 hPa | 0 mm | - | 0 W/m² | - |
| 1777518301 | 9.44° C | 53% | 1510.4 hPa | 0 mm | - | 0 W/m² | - |
| 1777518001 | 9.44° C | 53% | 1510.5 hPa | 0 mm | - | 0 W/m² | - |
| 1777517700 | 9.44° C | 55% | 1510.4 hPa | 0 mm | - | 0 W/m² | - |
| 1777517399 | 9.44° C | 55% | 1510 hPa | 0 mm | - | 0 W/m² | - |
| 1777517099 | 9.44° C | 53% | 1509.4 hPa | 0 mm | - | 0 W/m² | - |
| 1777516798 | 10° C | 53% | 1509 hPa | 0 mm | - | 0 W/m² | - |
| 1777516497 | 10° C | 53% | 1509 hPa | 0 mm | - | 0 W/m² | - |
| 1777516197 | 10° C | 53% | 1508.4 hPa | 0 mm | - | 0 W/m² | - |
| 1777515896 | 10° C | 53% | 1508 hPa | 0 mm | - | 0 W/m² | - |
| 1777515595 | 10° C | 52% | 1507.6 hPa | 0 mm | - | 0 W/m² | - |
| 1777515295 | 10.56° C | 52% | 1506.8 hPa | 0 mm | - | 0 W/m² | - |
| 1777514994 | 10.56° C | 49% | 1506.5 hPa | 0 mm | - | 0 W/m² | - |
| 1777514694 | 10.56° C | 53% | 1506.4 hPa | 0 mm | - | 1 W/m² | - |
| 1777514393 | 10.56° C | 54% | 1505.9 hPa | 0 mm | - | 1 W/m² | - |
| 1777514092 | 11.11° C | 52% | 1505.2 hPa | 0 mm | - | 2 W/m² | - |
| 1777513792 | 11.11° C | 50% | 1504.7 hPa | 0 mm | - | 4 W/m² | - |
| 1777513492 | 11.11° C | 51% | 1504.5 hPa | 0 mm | - | 5 W/m² | - |
| 1777513191 | 11.11° C | 51% | 1504.2 hPa | 0 mm | - | 9 W/m² | - |
* Rain latest hour (hover to see other rain measurements)
** Current wind speed in m/s (hover to see current wind gust speed)